Torna al catalogo

STARLINK-35827

AttivoComunicazioniVLEO
NORAD 66365·PAYLOAD·🇺🇸 United States

Lanciato Nov 6, 2025 da Vandenberg Space Force Base

Loading…

Prossimi Passaggi (prossime 24 ore)

TLE

AggiornatoSource: CelesTrak SupGP

Epoca: Sep 15, 2026, 04:10 UTC

1 66365C 25254T   26258.17409722 -.00024518  00000+0 -78868-3 0  2588
2 66365  53.1573  71.0949 0001071  92.5845 273.5030 15.31704826    12

Traccia STARLINK-35827 in tempo reale con AllMySat

Download on the App Store